ARIANE 5 R/B, 41030

Orbit data source: Space-Track

ARIANE 5 R/B, 41030 is space debris in HEO originally from a launch on Tue, 10 Nov 2015 UTC launched from the French Guiana (FRGUI). Debris objects in space refer to the collection of defunct objects orbiting the Earth. Examples of debris include non-operational satellites, rocket bodies, and fragments generated from explosions, collisions, or faulty payload assembly.

Loading next visibility...
Identifier
41030, 2015-065C
Orbit
HEO
Country
Flag of FRFR
Related business
Manufacturer
Airbus Safran
Mission
Spacecraft
Bus & Motor
ESC-A, Unknown motor
Mass
~5,000 kg wet, ~5,000 kg dry
Launch date (UTC)
2015-11-10 (10 years ago)
Launch vehicle
Unknown
Launch site
French Guiana (FRGUI)
Object type
Payload
Rocket body
Debris
Shape & HBR
Cyl + 1 Nozzle, 3.5 m
Radar Cross Section
41.627 m², Large (>1 m²)

Expand to show TLE details & history
Last TLE update: 8 hours ago

TLE from 8 hours ago
0 ARIANE 5 R/B
1 41030U 15065C   26071.49723633  .00003721  00000-0  82135-3 0  9993
2 41030   4.6495 325.7358 7051040 250.5999  25.4278  2.57779552 90238
Epoch: 2026-03-12T11:56Z
TLE epoch observation values (Epoch: 2026-03-12T11:56:01.218Z)
Latitude
0.00004°
Longitude
-23.50076°
Altitude
8,375.349 km
Speed
6.024 km/s
True Right ascension
21h 42m 36s
True Declination
0° 00' 00"
Sunlit
Object was in daylight at epoch
Visualization orbit readout
Latitude
Unknown
Longitude
Unknown
Altitude
Unknown
Speed
Unknown
Apparent Right ascension
Unknown
Apparent Declination
Unknown
Sunlit
N/A
Visualization observer readout
Local Sidereal Time
00:05:51
Azimuth
Unknown
Elevation
Unknown
Doppler factor
Unknown
Orbital elements
Apogee altitude
31,941.898 km
Perigee altitude
249.274 km
Semi-major axis
22,473.723 km
Eccentricity
0.7051
Inclination
4.6495°
RAAN
325.7358°
Arg. of periapsis
250.5999°
True anomaly
109.16314°
Mean anomaly
25.4278°
Eccentric anomaly
60.63729°
Mean motion
0.64421 °/min
Orbital period
558.82 mins
BSTAR
0.00082135
Loading maneuver chart data...
Computing Atmospheric mass density...
Loading historical data...
Loading historical data...
Loading historical data...
Loading historical data...
Loading historical data...
Loading historical data...
Loading historical data...
Other satellites on launch #65 in the year 2015 (2015-11-10 UTC)

Documentation

Showing up to 5 results
|